TimePDT,TemperatureF,Dew PointF,Humidity,Sea Level PressureIn,VisibilityMPH,Wind Direction,Wind SpeedMPH,Gust SpeedMPH,PrecipitationIn,Events,Conditions,WindDirDegrees,DateUTC
12:53 AM,46.0,44.1,93,30.19,10.0,Calm,Calm,-,N/A,,Clear,0,2013-05-10 07:53:00
1:53 AM,48.0,45.0,89,30.19,10.0,East,3.5,-,N/A,,Clear,80,2013-05-10 08:53:00
2:43 AM,46.4,46.4,100,30.19,5.0,ENE,4.6,-,N/A,,Scattered Clouds,70,2013-05-10 09:43:00
2:53 AM,48.0,46.0,93,30.19,4.0,ENE,3.5,-,N/A,,Mostly Cloudy,70,2013-05-10 09:53:00
3:13 AM,48.2,46.4,93,30.19,1.8,ENE,4.6,-,N/A,,Overcast,70,2013-05-10 10:13:00
3:24 AM,48.2,46.4,93,30.19,0.5,ENE,4.6,-,N/A,Fog,Fog,70,2013-05-10 10:24:00
3:53 AM,46.9,46.0,97,30.20,0.2,NNE,3.5,-,N/A,Fog,Fog,30,2013-05-10 10:53:00
4:12 AM,46.4,46.4,100,30.20,2.0,Calm,Calm,-,N/A,,Overcast,0,2013-05-10 11:12:00
4:20 AM,48.2,46.4,93,30.20,3.0,ENE,3.5,-,N/A,,Overcast,70,2013-05-10 11:20:00
4:38 AM,48.2,46.4,93,30.19,1.8,East,3.5,-,N/A,,Overcast,80,2013-05-10 11:38:00
6:53 AM,46.9,46.0,97,30.22,0.2,Calm,Calm,-,N/A,Fog,Fog,0,2013-05-10 13:53:00
7:53 AM,46.9,46.9,100,30.23,0.2,East,3.5,-,N/A,Fog,Fog,100,2013-05-10 14:53:00
8:53 AM,48.9,48.0,97,30.23,0.2,SE,3.5,-,N/A,Fog,Fog,130,2013-05-10 15:53:00
9:53 AM,48.9,46.9,93,30.23,0.2,ESE,4.6,-,N/A,Fog,Fog,120,2013-05-10 16:53:00
10:50 AM,50.0,48.2,94,30.23,2.0,East,3.5,-,N/A,,Overcast,100,2013-05-10 17:50:00
10:51 AM,50.0,48.0,93,30.23,2.5,East,3.5,-,N/A,,Overcast,100,2013-05-10 17:51:00
10:58 AM,51.8,48.2,88,30.23,7.0,East,4.6,-,N/A,,Mostly Cloudy,100,2013-05-10 17:58:00
11:25 AM,51.8,48.2,88,30.23,7.0,ESE,4.6,-,N/A,,Scattered Clouds,110,2013-05-10 18:25:00
11:53 AM,54.0,50.0,86,30.22,10.0,ESE,3.5,-,N/A,,Clear,110,2013-05-10 18:53:00
12:53 PM,57.0,50.0,77,30.22,10.0,ESE,3.5,-,N/A,,Clear,110,2013-05-10 19:53:00
1:53 PM,60.1,51.1,72,30.20,10.0,East,3.5,-,N/A,,Clear,100,2013-05-10 20:53:00
2:53 PM,60.1,51.1,72,30.19,10.0,ESE,3.5,-,N/A,,Clear,120,2013-05-10 21:53:00
3:53 PM,57.9,50.0,75,30.17,10.0,ESE,3.5,-,N/A,,Clear,110,2013-05-10 22:53:00
4:53 PM,57.9,50.0,75,30.17,10.0,Calm,Calm,-,N/A,,Clear,0,2013-05-10 23:53:00
5:53 PM,59.0,50.0,72,30.15,10.0,ESE,3.5,-,N/A,,Clear,110,2013-05-11 00:53:00
6:53 PM,54.0,48.0,80,30.14,10.0,Calm,Calm,-,N/A,,Clear,0,2013-05-11 01:53:00
7:53 PM,51.1,46.9,86,30.14,10.0,Calm,Calm,-,N/A,,Clear,0,2013-05-11 02:53:00
8:53 PM,50.0,46.9,89,30.14,10.0,Calm,Calm,-,N/A,,Clear,0,2013-05-11 03:53:00
9:53 PM,48.0,46.0,93,30.15,10.0,Calm,Calm,-,N/A,,Clear,0,2013-05-11 04:53:00
10:53 PM,46.9,45.0,93,30.16,10.0,Calm,Calm,-,N/A,,Clear,0,2013-05-11 05:53:00
11:53 PM,46.9,45.0,93,30.16,10.0,Calm,Calm,-,N/A,,Clear,0,2013-05-11 06:53:00